Change the Weather History Date:

Friday, January 4, 2013

  Actual Average Record
Temperature  
Mean Temperature 78 °F -  
Max Temperature 83 °F 84 °F - ()
Min Temperature 74 °F 72 °F - ()
Cooling Degree Days 14    
Growing Degree Days 28 (Base 50)    
Moisture  
Dew Point 75 °F    
Average Humidity 89    
Maximum Humidity 100    
Minimum Humidity 76    
Precipitation  
Precipitation 0.47 in 0.15 in - ()
Sea Level Pressure  
Sea Level Pressure 29.83 in    
Wind  
Wind Speed 4 mph ()    
Max Wind Speed 12 mph    
Max Gust Speed -    
Visibility 4.9 miles    
Events Rain    
T = Trace of Precipitation, MM = Missing Value Source: Averaged Metar Reports

Daily Weather History Graph

Daily Weather History Graph

Search for Another Location

Airport or City:

Trip Planner

Search our weather history database for the weather conditions in past years. The results will help you decide how hot, cold, wet, or windy it might be!

Date:

Astronomy

Jan. 04, 2013 Rise Set
Actual Time 7:22 AM MYT 7:09 PM MYT
Civil Twilight 6:59 AM MYT 7:31 PM MYT
Nautical Twilight 6:33 AM MYT 7:57 PM MYT
Astronomical Twilight 6:07 AM MYT 8:23 PM MYT
Moon No Moon Rise 12:12 PM MYT (1/4)
Length of Visible Light 12h 31m
Length of Day
11h 46m
Waning Gibbous, 61% of the Moon is Illuminated
Jan 4
Waning Gibbous
Jan 5
Last Quarter
Jan 12
New
Jan 19
First Quarter
Jan 27
Full

Hourly Weather History & Observations

Time (MYT) Temp. Heat Index Dew Point Humidity Pressure Visibility Wind Dir Wind Speed Gust Speed Precip Events Conditions
12:00 AM 75.2 °F - 73.4 °F 94% 29.89 in 5.0 mi SW 3.5 mph - N/A   Overcast
1:00 AM 75.2 °F - 73.4 °F 94% 29.89 in 3.1 mi South 3.5 mph - N/A Rain Light Rain
2:00 AM 75 °F - 73 °F 93% 29.88 in 3 mi SW 2.3 mph - - Rain Light Rain
2:00 AM 75.2 °F - 73.4 °F 94% 29.86 in 3.1 mi SW 2.3 mph - N/A Rain Light Rain
3:00 AM 75.2 °F - 73.4 °F 94% 29.83 in 5.0 mi SSW 2.3 mph - N/A Rain Light Rain
4:00 AM 75.2 °F - 73.4 °F 94% 29.83 in 4.3 mi SSW 2.3 mph - N/A Rain Light Rain
5:00 AM 74 °F - 73 °F 97% 29.83 in 4 mi SW 2.3 mph - - Rain Light Rain
5:00 AM 73.4 °F - 73.4 °F 100% 29.80 in 4.3 mi SW 2.3 mph - N/A Rain Light Rain
6:00 AM 75.2 °F - 73.4 °F 94% 29.83 in 4.3 mi WSW 1.2 mph - N/A Rain Light Rain
7:00 AM 75.2 °F - 73.4 °F 94% 29.83 in 5.0 mi SW 3.5 mph - N/A Rain Light Rain
8:00 AM 74 °F - 73 °F 97% 29.86 in 1 mi South 4.6 mph - - Rain Rain
8:00 AM 75.2 °F - 73.4 °F 94% 29.83 in 0.6 mi South 4.6 mph - N/A Rain Rain
9:00 AM 75.2 °F - 73.4 °F 94% 29.89 in 0.7 mi South 1.2 mph - N/A Rain Light Rain
10:00 AM 75.2 °F - 73.4 °F 94% 29.89 in 2.5 mi South 3.5 mph - N/A Rain Light Rain
11:00 AM - - - % 29.89 in 4 mi WSW 1.2 mph - - Rain Light Rain
11:00 AM 77.0 °F - 75.2 °F 94% 29.89 in 3.7 mi WSW 1.2 mph - N/A Rain Light Rain
12:00 PM 80.6 °F 86.2 °F 75.2 °F 84% 29.86 in 6.2 mi South 3.5 mph - N/A   Mostly Cloudy
1:00 PM 82.4 °F 90.9 °F 77.0 °F 84% 29.83 in 6.2 mi ESE 3.5 mph - N/A   Mostly Cloudy
2:00 PM 83 °F - 77 °F 76% 29.80 in 7 mi East 8.1 mph - -   Haze
2:00 PM 82.4 °F 90.9 °F 77.0 °F 84% 29.80 in 6.2 mi East 8.1 mph - N/A   Mostly Cloudy
4:00 PM 82.4 °F 90.9 °F 77.0 °F 84% 29.74 in 6.2 mi East 5.8 mph - N/A   Mostly Cloudy
5:00 PM 82 °F - 76 °F 76% 29.75 in 9 mi East 11.5 mph - -   Haze
6:00 PM 80.6 °F 86.2 °F 75.2 °F 84% 29.74 in 6.2 mi ENE 10.4 mph - N/A   Mostly Cloudy
7:00 PM 80.6 °F 86.2 °F 75.2 °F 84% 29.77 in 6.2 mi ENE 10.4 mph - N/A   Mostly Cloudy
8:00 PM 80 °F - 75 °F 81% 29.80 in 7 mi East 8.1 mph - -   Haze
8:00 PM 80.6 °F 86.2 °F 75.2 °F 84% 29.77 in 6.2 mi East 8.1 mph - N/A   Mostly Cloudy
9:00 PM 80.6 °F 86.2 °F 75.2 °F 84% 29.80 in 6.2 mi East 8.1 mph - N/A   Mostly Cloudy
10:00 PM 80.6 °F 86.2 °F 75.2 °F 84% 29.83 in 6.2 mi ENE 10.4 mph - N/A   Mostly Cloudy
11:00 PM 80 °F - 75 °F 81% 29.83 in 7 mi East 8.1 mph - -   Haze
11:00 PM 78.8 °F - 75.2 °F 89% 29.83 in 6.2 mi East 8.1 mph - N/A   Mostly Cloudy